WA6MEM Weather Reports


time (UTC)temp
C
wind
direction
speed
KPH
gust
KPH
rain 1hr
cm
rain 24hr
cm
rain mn
cm
humidity
%
barometer
mb
20260902165546 18 196 1.6 0.0 0.00 0.00 0.00 85 1014.6
20260902165045 18 115 1.6 0.0 0.00 0.00 0.00 86 1014.6
20260902164543 18 92 1.6 0.0 0.00 0.00 0.00 86 1014.6
20260902164045 18 189 3.2 0.0 0.00 0.00 0.00 87 1014.8
20260902163540 17 202 3.2 0.0 0.00 0.00 0.00 88 1014.8
20260902163040 17 186 3.2 0.0 0.00 0.00 0.00 89 1014.8
20260902162538 17 185 3.2 0.0 0.00 0.00 0.00 89 1014.7
20260902162038 17 188 3.2 0.0 0.00 0.00 0.00 90 1014.7
20260902161537 17 173 1.6 0.0 0.00 0.00 0.00 90 1014.7
20260902161037 17 188 1.6 0.0 0.00 0.00 0.00 90 1014.7
20260902160536 17 149 1.6 0.0 0.00 0.00 0.00 90 1014.7
20260902160046 17 175 1.6 0.0 0.00 0.00 0.00 91 1014.7
20260902155536 17 187 1.6 0.0 0.00 0.00 0.00 91 1014.5
20260902155040 17 44 1.6 0.0 0.00 0.00 0.00 92 1014.5
20260902154535 16 147 1.6 0.0 0.00 0.00 0.00 92 1014.5
20260902154034 16 130 1.6 0.0 0.00 0.00 0.00 93 1014.5
20260902153533 16 126 1.6 0.0 0.00 0.00 0.00 93 1014.5
20260902153034 16 176 1.6 0.0 0.00 0.00 0.00 94 1014.5
20260902152532 16 138 1.6 0.0 0.00 0.00 0.00 94 1014.5
20260902152032 16 188 1.6 0.0 0.00 0.00 0.00 94 1014.5
20260902151531 16 165 1.6 0.0 0.00 0.00 0.00 95 1014.5
20260902151034 16 200 1.6 0.0 0.00 0.00 0.00 95 1014.6
20260902150530 16 169 3.2 0.0 0.00 0.00 0.00 95 1014.6
20260902150029 16 205 1.6 0.0 0.00 0.00 0.00 95 1014.6
20260902145529 16 200 1.6 0.0 0.00 0.00 0.00 96 1014.6
20260902145031 16 169 1.6 0.0 0.00 0.00 0.00 96 1014.6
20260902144528 16 197 1.6 0.0 0.00 0.00 0.00 96 1014.6
20260902144027 16 202 1.6 0.0 0.00 0.00 0.00 96 1014.5
20260902143527 16 159 1.6 0.0 0.00 0.00 0.00 96 1014.5
20260902143027 15 219 1.6 0.0 0.00 0.00 0.00 96 1014.5
20260902142526 15 172 0.0 0.0 0.00 0.00 0.00 96 1014.3
20260902142026 15 144 0.0 0.0 0.00 0.00 0.00 96 1014.3
20260902141526 15 65 0.0 0.0 0.00 0.00 0.00 96 1014.3
20260902141027 15 65 0.0 0.0 0.00 0.00 0.00 96 1014.2
20260902140526 15 65 0.0 0.0 0.00 0.00 0.00 96 1014.2
20260902140034 15 65 0.0 0.0 0.00 0.00 0.00 96 1014.2
20260902135524 14 65 0.0 0.0 0.00 0.00 0.00 96 1014.1
20260902135024 14 65 0.0 0.0 0.00 0.00 0.00 96 1014.1
20260902134524 14 65 0.0 0.0 0.00 0.00 0.00 95 1014.1
20260902134023 14 65 0.0 0.0 0.00 0.00 0.00 95 1014.0
20260902133523 14 65 0.0 0.0 0.00 0.00 0.00 96 1014.0
20260902133023 14 65 0.0 0.0 0.00 0.00 0.00 95 1014.0
20260902132522 14 65 0.0 0.0 0.00 0.00 0.00 95 1013.9
20260902132022 15 65 0.0 0.0 0.00 0.00 0.00 95 1013.9
20260902131522 15 65 1.6 0.0 0.00 0.00 0.00 96 1013.9
20260902131026 15 65 1.6 0.0 0.00 0.00 0.00 96 1013.7
20260902130523 15 63 1.6 0.0 0.00 0.00 0.00 96 1013.7
20260902130022 15 79 1.6 0.0 0.00 0.00 0.00 96 1013.7
20260902125522 14 109 1.6 0.0 0.00 0.00 0.00 96 1013.5
20260902125023 14 57 1.6 0.0 0.00 0.00 0.00 96 1013.5
20260902124522 14 36 3.2 0.0 0.00 0.00 0.00 96 1013.5
20260902124021 14 35 3.2 0.0 0.00 0.00 0.00 96 1013.7
20260902123520 14 30 1.6 0.0 0.00 0.00 0.00 95 1013.7
20260902123025 14 37 1.6 0.0 0.00 0.00 0.00 95 1013.7
20260902122520 14 55 1.6 0.0 0.00 0.00 0.00 95 1013.7
20260902122019 14 31 3.2 0.0 0.00 0.00 0.00 95 1013.7
20260902121519 14 48 1.6 0.0 0.00 0.00 0.00 95 1013.7
20260902121019 14 55 0.0 0.0 0.00 0.00 0.00 95 1013.8
20260902120519 14 195 0.0 0.0 0.00 0.00 0.00 95 1013.8
20260902120019 14 195 0.0 0.0 0.00 0.00 0.00 95 1013.8
20260902115522 14 195 0.0 0.0 0.00 0.00 0.00 95 1013.8
20260902115018 14 195 0.0 0.0 0.00 0.00 0.00 95 1013.8
20260902114518 14 195 0.0 0.0 0.00 0.00 0.00 95 1013.8
20260902114023 15 195 0.0 0.0 0.00 0.00 0.00 95 1013.7
20260902113517 15 195 0.0 0.0 0.00 0.00 0.00 95 1013.7
20260902113017 15 195 0.0 0.0 0.00 0.00 0.00 95 1013.7
20260902112517 15 195 0.0 0.0 0.00 0.00 0.00 95 1013.9
20260902112017 15 195 0.0 0.0 0.00 0.00 0.00 95 1013.9
20260902111534 15 195 0.0 0.0 0.00 0.00 0.00 95 1013.9
20260902111016 15 195 0.0 0.0 0.00 0.00 0.00 95 1013.6
20260902110516 15 195 0.0 0.0 0.00 0.00 0.00 95 1013.6
20260902110043 15 195 0.0 0.0 0.00 0.00 0.00 94 1013.6
20260902105515 15 195 0.0 0.0 0.00 0.00 0.00 95 1013.7
20260902105015 15 195 0.0 0.0 0.00 0.00 0.00 95 1013.7
20260902104520 15 195 0.0 0.0 0.00 0.00 0.00 95 1013.7
20260902104016 15 195 0.0 0.0 0.00 0.00 0.00 94 1013.7
20260902103514 14 195 0.0 0.0 0.00 0.00 0.00 94 1013.7
20260902103014 14 195 0.0 0.0 0.00 0.00 0.00 94 1013.7
20260902102518 14 195 0.0 0.0 0.00 0.00 0.00 94 1013.7
20260902102013 14 195 0.0 0.0 0.00 0.00 0.00 94 1013.7
20260902101513 15 195 0.0 0.0 0.00 0.00 0.00 94 1013.7
20260902101013 15 195 0.0 0.0 0.00 0.00 0.00 94 1013.7
20260902100517 15 195 0.0 0.0 0.00 0.00 0.00 94 1013.7
20260902100015 15 195 0.0 0.0 0.00 0.00 0.00 94 1013.7
20260902095512 15 195 0.0 0.0 0.00 0.00 0.00 94 1013.7
20260902095012 15 195 0.0 0.0 0.00 0.00 0.00 93 1013.7
20260902094512 15 195 0.0 0.0 0.00 0.00 0.00 93 1013.7
20260902094012 15 195 0.0 0.0 0.00 0.00 0.00 93 1013.7
20260902093511 15 195 0.0 0.0 0.00 0.00 0.00 93 1013.7
20260902093010 15 195 0.0 0.0 0.00 0.00 0.00 93 1013.7
20260902092510 15 195 0.0 0.0 0.00 0.00 0.00 93 1013.9
20260902092012 15 195 0.0 0.0 0.00 0.00 0.00 93 1013.9
20260902091510 15 195 0.0 0.0 0.00 0.00 0.00 93 1013.9
20260902091011 15 195 0.0 0.0 0.00 0.00 0.00 93 1014.0
20260902090509 15 195 0.0 0.0 0.00 0.00 0.00 93 1014.0
20260902090009 15 195 0.0 0.0 0.00 0.00 0.00 93 1014.0
20260902085508 15 195 0.0 0.0 0.00 0.00 0.00 93 1014.0
20260902085008 15 195 0.0 0.0 0.00 0.00 0.00 93 1014.0
20260902084508 15 195 0.0 0.0 0.00 0.00 0.00 93 1014.0
20260902084010 15 195 0.0 0.0 0.00 0.00 0.00 93 1014.1
20260902083511 15 195 0.0 0.0 0.00 0.00 0.00 93 1014.1
20260902083009 15 195 1.6 0.0 0.00 0.00 0.00 93 1014.1
20260902082508 15 195 1.6 0.0 0.00 0.00 0.00 93 1014.1
20260902082006 15 195 1.6 0.0 0.00 0.00 0.00 92 1014.1
20260902081506 15 195 1.6 0.0 0.00 0.00 0.00 92 1014.1
20260902081005 15 195 0.0 0.0 0.00 0.00 0.00 92 1014.1
20260902080505 15 159 0.0 0.0 0.00 0.00 0.00 92 1014.1
20260902080004 15 159 0.0 0.0 0.00 0.00 0.00 92 1014.1
20260902075504 15 159 0.0 0.0 0.00 0.00 0.00 92 1014.1
20260902075004 15 159 0.0 0.0 0.00 0.00 0.00 92 1014.1
20260902074504 15 159 0.0 0.0 0.00 0.00 0.00 92 1014.1
20260902074005 15 159 0.0 0.0 0.00 0.00 0.00 92 1013.7
20260902073503 15 159 1.6 0.0 0.00 0.00 0.00 92 1013.7
20260902073003 15 190 1.6 0.0 0.00 0.00 0.00 92 1013.7
20260902072503 15 157 1.6 0.0 0.00 0.00 0.00 92 1013.7
20260902072003 15 161 1.6 0.0 0.00 0.00 0.00 91 1013.7
20260902071502 15 169 0.0 0.0 0.00 0.00 0.00 91 1013.7
20260902071004 15 211 0.0 0.0 0.00 0.00 0.00 91 1013.7
20260902070503 15 211 1.6 0.0 0.00 0.00 0.00 91 1013.7
20260902070000 16 197 1.6 0.0 0.00 0.00 0.03 91 1013.7
20260902065603 16 196 1.6 0.0 0.00 0.00 0.03 91 1013.6
20260902065100 16 188 3.2 0.0 0.00 0.00 0.03 91 1013.6
20260902064600 16 169 3.2 0.0 0.00 0.00 0.03 91 1013.6
20260902064101 16 163 3.2 0.0 0.00 0.00 0.03 91 1013.6
20260902063559 16 178 3.2 0.0 0.00 0.00 0.03 91 1013.6
20260902063104 15 163 1.6 0.0 0.00 0.00 0.03 91 1013.6
20260902062600 16 194 3.2 0.0 0.00 0.00 0.03 91 1013.6
20260902062059 16 182 3.2 0.0 0.00 0.00 0.03 91 1013.6
20260902061613 16 234 3.2 0.0 0.00 0.00 0.03 91 1013.6
20260902061059 16 160 3.2 0.0 0.00 0.00 0.03 91 1013.6
20260902060602 16 192 3.2 0.0 0.00 0.00 0.03 90 1013.6
20260902060059 16 182 3.2 0.0 0.00 0.00 0.03 90 1013.6
20260902055603 16 196 3.2 0.0 0.00 0.00 0.03 90 1013.5
20260902055059 16 198 3.2 0.0 0.00 0.00 0.03 90 1013.5
20260902054559 16 195 4.8 0.0 0.00 0.00 0.03 90 1013.5
20260902054059 16 156 4.8 0.0 0.00 0.00 0.03 90 1013.3
20260902053601 16 169 4.8 0.0 0.00 0.00 0.03 90 1013.3
20260902053058 16 187 4.8 0.0 0.00 0.00 0.03 90 1013.3
20260902052601 16 159 4.8 0.0 0.00 0.00 0.03 89 1013.5
20260902052057 16 175 3.2 0.0 0.00 0.00 0.03 89 1013.5
20260902051600 16 186 3.2 0.0 0.00 0.00 0.03 89 1013.5
20260902051057 16 192 3.2 0.0 0.00 0.00 0.03 88 1013.6
20260902050557 16 187 1.6 0.0 0.00 0.00 0.03 88 1013.6
20260902050057 16 196 1.6 0.0 0.00 0.00 0.03 87 1013.6
20260902045601 16 167 3.2 0.0 0.00 0.00 0.03 87 1013.5
20260902045057 16 188 3.2 0.0 0.00 0.00 0.03 86 1013.5
20260902044557 16 182 1.6 0.0 0.00 0.00 0.03 86 1013.5
20260902044057 16 158 1.6 0.0 0.00 0.00 0.03 85 1013.3
20260902043558 16 198 3.2 0.0 0.00 0.00 0.03 85 1013.3
20260902043103 16 246 3.2 0.0 0.00 0.00 0.03 85 1013.3
20260902042556 16 300 3.2 0.0 0.00 0.00 0.03 85 1013.1
20260902042056 16 267 3.2 0.0 0.00 0.00 0.03 84 1013.1
20260902041555 16 301 4.8 0.0 0.00 0.00 0.03 85 1013.1
20260902041056 16 175 6.4 0.0 0.00 0.00 0.03 86 1013.0
20260902040558 16 267 6.4 0.0 0.00 0.00 0.03 88 1013.0
20260902040055 16 208 6.4 0.0 0.00 0.00 0.03 89 1013.0
20260902035556 16 236 4.8 0.0 0.00 0.00 0.03 90 1012.8
20260902035055 16 181 4.8 0.0 0.00 0.00 0.03 90 1012.8
20260902034555 16 273 4.8 0.0 0.00 0.00 0.03 90 1012.8
20260902034054 16 267 6.4 0.0 0.00 0.00 0.03 91 1012.5
20260902033554 16 262 6.4 0.0 0.00 0.00 0.03 91 1012.5
20260902033106 16 209 6.4 0.0 0.00 0.00 0.03 91 1012.5
20260902032554 16 207 4.8 0.0 0.00 0.00 0.03 91 1012.5
20260902032054 16 229 4.8 0.0 0.00 0.00 0.03 90 1012.5
20260902031554 16 281 6.4 0.0 0.00 0.00 0.03 90 1012.5
20260902031054 16 269 4.8 0.0 0.00 0.00 0.03 90 1012.4
20260902030556 16 236 4.8 0.0 0.00 0.00 0.03 90 1012.4
20260902030053 16 172 3.2 0.0 0.00 0.00 0.03 90 1012.4
20260902025554 16 198 4.8 0.0 0.00 0.00 0.03 89 1012.4
20260902025054 16 207 3.2 0.0 0.00 0.00 0.03 89 1012.4
20260902024555 16 206 3.2 0.0 0.00 0.00 0.03 88 1012.4
20260902024053 16 214 3.2 0.0 0.00 0.00 0.03 87 1012.3
20260902023552 16 189 1.6 0.0 0.00 0.00 0.03 86 1012.3
20260902023054 16 177 1.6 0.0 0.00 0.00 0.03 86 1012.3
20260902022553 16 192 3.2 0.0 0.00 0.00 0.03 85 1012.3
20260902022052 17 201 3.2 0.0 0.00 0.00 0.03 85 1012.3
20260902021557 17 209 3.2 0.0 0.00 0.00 0.03 85 1012.3
20260902021052 17 172 3.2 0.0 0.00 0.00 0.03 84 1012.4
20260902020554 17 225 3.2 0.0 0.00 0.00 0.03 84 1012.4
20260902020052 17 215 3.2 0.0 0.00 0.00 0.03 84 1012.4
20260902015556 17 181 3.2 0.0 0.00 0.00 0.03 84 1012.3
20260902015052 17 211 3.2 0.0 0.00 0.00 0.03 84 1012.3
20260902014552 17 184 4.8 0.0 0.00 0.00 0.03 84 1012.3
20260902014052 18 205 4.8 0.0 0.00 0.00 0.03 83 1012.3
20260902013551 18 214 3.2 0.0 0.00 0.00 0.03 83 1012.3
20260902013051 18 202 4.8 0.0 0.00 0.00 0.03 82 1012.3
20260902012550 18 174 4.8 0.0 0.00 0.00 0.03 81 1012.2
20260902012050 18 205 3.2 0.0 0.00 0.00 0.03 81 1012.2
20260902011551 19 233 3.2 0.0 0.00 0.00 0.03 80 1012.2
20260902011051 19 199 4.8 0.0 0.00 0.00 0.03 80 1012.4
20260902010550 19 208 4.8 0.0 0.00 0.00 0.03 80 1012.4
20260902010051 19 222 4.8 0.0 0.00 0.00 0.03 80 1012.4
20260902005550 19 215 4.8 0.0 0.00 0.00 0.03 80 1012.5
20260902005052 19 205 4.8 0.0 0.00 0.00 0.03 80 1012.5
20260902004550 20 230 4.8 0.0 0.00 0.00 0.03 79 1012.5
20260902004050 20 254 4.8 0.0 0.00 0.00 0.03 76 1012.5
20260902003549 20 231 4.8 0.0 0.00 0.00 0.03 76 1012.5
20260902003049 20 297 4.8 0.0 0.00 0.00 0.03 75 1012.5
20260902002550 20 228 4.8 0.0 0.00 0.00 0.03 75 1012.5
20260902002050 20 200 4.8 0.0 0.00 0.00 0.03 75 1012.5
20260902001549 21 209 4.8 0.0 0.00 0.00 0.03 74 1012.5
20260902001052 21 244 4.8 0.0 0.00 0.00 0.03 74 1012.6
20260902000549 21 192 3.2 0.0 0.00 0.00 0.03 72 1012.6
20260902000053 21 229 4.8 0.0 0.00 0.00 0.03 73 1012.6
20260901235549 21 252 6.4 0.0 0.00 0.00 0.03 71 1012.7
20260901235049 21 216 4.8 0.0 0.00 0.00 0.03 72 1012.7
20260901234557 21 254 4.8 0.0 0.00 0.00 0.03 73 1012.7
20260901234048 21 255 4.8 0.0 0.00 0.00 0.03 73 1012.6
20260901233548 21 227 4.8 0.0 0.00 0.00 0.03 71 1012.6
20260901233048 21 223 4.8 0.0 0.00 0.00 0.03 71 1012.6
20260901232550 21 196 4.8 0.0 0.00 0.00 0.03 66 1012.6
20260901232048 21 232 4.8 0.0 0.00 0.00 0.03 72 1012.6
20260901231548 21 215 4.8 0.0 0.00 0.00 0.03 72 1012.6
20260901231047 21 250 6.4 0.0 0.00 0.00 0.03 71 1012.7
20260901230547 21 297 6.4 0.0 0.00 0.00 0.03 71 1012.7
20260901230048 22 232 6.4 0.0 0.00 0.00 0.03 70 1012.7
20260901225546 22 240 8.0 0.0 0.00 0.00 0.03 69 1012.7
20260901225047 22 211 6.4 0.0 0.00 0.00 0.03 68 1012.7
20260901224547 22 205 6.4 0.0 0.00 0.00 0.03 65 1012.7
20260901224049 22 191 6.4 0.0 0.00 0.00 0.03 66 1012.8
20260901223546 22 166 6.4 0.0 0.00 0.00 0.03 66 1012.8
20260901223046 22 208 6.4 0.0 0.00 0.00 0.03 64 1012.8
20260901222545 22 215 6.4 0.0 0.00 0.00 0.03 65 1013.0
20260901222045 22 205 6.4 0.0 0.00 0.00 0.03 64 1013.0
20260901221614 22 186 6.4 0.0 0.00 0.00 0.03 66 1013.0
20260901221045 22 203 6.4 0.0 0.00 0.00 0.03 65 1013.1
20260901220545 22 228 6.4 0.0 0.00 0.00 0.03 64 1013.1
20260901220044 22 200 6.4 0.0 0.00 0.00 0.03 64 1013.1
20260901215543 22 198 6.4 0.0 0.00 0.00 0.03 67 1013.1
20260901215048 22 229 6.4 0.0 0.00 0.00 0.03 67 1013.1
20260901214542 22 222 6.4 0.0 0.00 0.00 0.03 68 1013.1
20260901214043 22 207 6.4 0.0 0.00 0.00 0.03 72 1013.2
20260901213541 22 156 6.4 0.0 0.00 0.00 0.03 72 1013.2
20260901213059 22 192 6.4 0.0 0.00 0.00 0.03 72 1013.2
20260901212541 22 202 6.4 0.0 0.00 0.00 0.03 71 1013.4
20260901212041 22 221 6.4 0.0 0.00 0.00 0.03 71 1013.4
20260901211545 22 165 4.8 0.0 0.00 0.00 0.03 73 1013.4
20260901211041 22 277 6.4 0.0 0.00 0.00 0.03 72 1013.4
20260901210541 22 173 8.0 0.0 0.00 0.00 0.03 72 1013.4
20260901210041 22 201 6.4 0.0 0.00 0.00 0.03 72 1013.4
20260901205542 22 212 6.4 0.0 0.00 0.00 0.03 72 1013.6
20260901205039 22 171 6.4 0.0 0.00 0.00 0.03 71 1013.6
20260901204540 22 194 4.8 0.0 0.00 0.00 0.03 71 1013.6
20260901204039 22 198 4.8 0.0 0.00 0.00 0.03 71 1013.6
20260901203538 22 244 4.8 0.0 0.00 0.00 0.03 72 1013.6
20260901203044 22 168 4.8 0.0 0.00 0.00 0.03 72 1013.6
20260901202537 22 202 4.8 0.0 0.00 0.00 0.03 75 1013.9
20260901202038 22 213 4.8 0.0 0.00 0.00 0.03 74 1013.9
20260901201537 22 234 4.8 0.0 0.00 0.00 0.03 74 1013.9
20260901201036 22 159 4.8 0.0 0.00 0.00 0.03 75 1014.1
20260901200534 21 123 4.8 0.0 0.00 0.00 0.03 75 1014.1
20260901200043 21 218 4.8 0.0 0.00 0.00 0.03 74 1014.1
20260901195536 21 255 4.8 0.0 0.00 0.00 0.03 76 1014.2
20260901195038 21 185 4.8 0.0 0.00 0.00 0.03 74 1014.2
20260901194532 21 221 4.8 0.0 0.00 0.00 0.03 74 1014.2
20260901194032 21 190 4.8 0.0 0.00 0.00 0.03 76 1014.3
20260901193531 21 180 4.8 0.0 0.00 0.00 0.03 76 1014.3
20260901193031 21 165 4.8 0.0 0.00 0.00 0.03 76 1014.3
20260901192530 21 153 4.8 0.0 0.00 0.00 0.03 77 1014.3
20260901192032 21 148 4.8 0.0 0.00 0.00 0.03 77 1014.3
20260901191528 21 209 4.8 0.0 0.00 0.00 0.03 78 1014.3
20260901191030 21 233 4.8 0.0 0.00 0.00 0.03 79 1014.4
20260901190526 21 161 4.8 0.0 0.00 0.00 0.03 78 1014.4
20260901190026 21 135 4.8 0.0 0.00 0.00 0.03 79 1014.4
20260901185527 20 167 4.8 0.0 0.00 0.00 0.03 79 1014.3
20260901185025 20 180 4.8 0.0 0.00 0.00 0.03 79 1014.3
20260901184531 20 179 4.8 0.0 0.00 0.00 0.03 79 1014.3
20260901184024 20 188 4.8 0.0 0.00 0.00 0.03 79 1014.4
20260901183523 20 159 3.2 0.0 0.00 0.00 0.03 79 1014.4
20260901183022 20 155 3.2 0.0 0.00 0.00 0.03 79 1014.4
20260901182521 20 167 3.2 0.0 0.00 0.00 0.03 80 1014.3
20260901182021 20 192 3.2 0.0 0.00 0.00 0.03 80 1014.3
20260901181520 20 173 4.8 0.0 0.00 0.00 0.03 81 1014.3
20260901181018 20 186 4.8 0.0 0.00 0.00 0.03 81 1014.4
20260901180518 20 196 4.8 0.0 0.00 0.00 0.03 81 1014.4
20260901180018 20 161 4.8 0.0 0.00 0.00 0.03 81 1014.4
20260901175517 20 208 3.2 0.0 0.00 0.00 0.03 82 1014.5
20260901175017 20 202 3.2 0.0 0.00 0.00 0.03 83 1014.5
20260901174516 19 146 4.8 0.0 0.00 0.00 0.03 83 1014.5
20260901174018 19 161 4.8 0.0 0.00 0.00 0.03 83 1014.4
20260901173514 19 177 3.2 0.0 0.00 0.00 0.03 84 1014.4
20260901173013 19 173 3.2 0.0 0.00 0.00 0.03 84 1014.4
20260901172513 19 198 3.2 0.0 0.00 0.00 0.03 85 1014.4
20260901172012 18 202 3.2 0.0 0.00 0.00 0.03 87 1014.4
20260901171517 18 132 3.2 0.0 0.00 0.00 0.03 88 1014.4
20260901171009 18 180 3.2 0.0 0.00 0.00 0.03 89 1014.2
20260901170509 18 128 3.2 0.0 0.00 0.00 0.03 90 1014.2
20260901170007 17 90 1.6 0.0 0.00 0.00 0.03 92 1014.2